Location: Newberry Star Park
(29.6730°N, 82.6011°W)
Time: 09:29:56
(UTC-04:00)

Envisat - Visible Passes

Search period start: 19 July 2018 00:00
Search period end: 29 July 2018 00:00
Orbit: 764 x 766 km, 98.2° (Epoch: 19 July)

Date Brightness Start Highest point End Pass type
(mag) Time Alt. Az. Time Alt. Az. Time Alt. Az.
19 Jul 5.1 21:42:45 10° SSW 21:46:49 24° W 21:50:55 10° NW visible
20 Jul 3.5 21:05:00 10° S 21:10:00 61° W 21:15:02 10° NNW visible
21 Jul 5.7 22:10:27 10° WSW 22:12:33 12° W 22:14:40 10° WNW visible
22 Jul 4.7 21:31:08 10° SSW 21:35:37 32° W 21:40:07 10° NW visible
23 Jul 3.2 20:53:46 10° S 20:58:50 81° WSW 21:03:56 10° NNW visible
24 Jul 5.6 21:58:07 10° SW 22:01:19 17° W 22:04:31 10° NW visible
25 Jul 4.2 21:19:39 10° S 21:24:24 41° W 21:29:13 10° NNW visible
26 Jul 3.0 20:42:38 10° SSE 20:47:41 78° ENE 20:52:46 10° N visible
27 Jul 5.3 21:46:13 10° SW 21:50:05 22° W 21:53:58 10° NW visible
28 Jul 3.7 21:08:16 10° S 21:13:14 55° W 21:18:13 10° NNW visible
